Карточка аэропорта URMG

Внимание!
Информация на этой странице в стадии наполнения.
Если вы не увидели какой-то информации, или заметили неточность - пожалуйста сообщите нам!
Спасибо!
Команда RU-STAFF
Название аэропорта Грозный
Название аэропорта (англ.)Grozniy
Превышение545 ft. (166.1 m.)
Координаты43°23.292', 45°41.988'
Высота перехода1900 m
Эшелон переходаFL80
Коды ответчика2410-2417
Зона ОрВДРостов-на-Дону РПИ (URRV)
Данные METARURMG 082300Z 29001MPS 7000 OVC015 01/M00 Q1028 R26/190060 TEMPO 0300 FG OVC002 RMK QFE756/1008
Проноз погоды (TAF)
NOTAMshow/hide NOTAM
AWOS   TABLE

Информация о ВПП

ВПП Длина ВПП (м.) Покрытие Курс ВПП Частота ILS
082505Асфальтобетон80 
262505Асфальтобетон260108.7

Диспетчерские позиции

Позывной Наименование органа УВД Частота
URMG_TWRГрозный-Старт119.0
URMG_R_APPГрозный-Вышка120.200



Спутниковое изображение